Temp
64 64 63 63 63 62 61 60 60 59 59 58 57 56 56 55 56 55 55 55 54 53 53 51 50 51 49 50 50 48 47 47 44 50 55 59 59 59 61 62 63 64 66
61 61 62 61 60 60 60 60 60 58 58 57 56 55 55 55 55 54 53 54 52 50 49 49 49 51 50 50 49 49 49 48 44 42 48 52 56 58 59 59 61 65 64
60 60 60 59 59 58 58 58 58 57 57 57 55 54 54 53 53 54 53 51 50 49 49 49 49 50 49 49 49 49 50 51 49 45 44 48 51 55 55 57 58 59 63
58 58 57 58 57 56 56 56 56 56 55 55 54 54 53 53 53 53 51 49 49 50 50 50 51 50 49 47 47 47 49 47 48 47 44 46 47 50 53 52 53 58 58
57 56 56 56 56 55 54 54 54 54 54 53 53 53 53 52 52 51 50 48 48 48 48 48 49 50 51 50 48 47 47 47 47 47 46 46 46 46 46 52 51 54 58
56 55 55 54 54 53 53 52 52 52 52 52 51 50 49 51 50 50 49 47 47 48 46 50 51 50 49 51 52 53 48 45 47 48 47 46 45 46 50 51 52 51 48
55 55 54 53 52 51 52 51 50 50 51 47 47 47 47 48 49 50 50 49 49 49 49 50 49 50 51 50 51 53 52 53 49 46 43 45 45 49 50 47 48 50 50
53 53 53 52 50 50 50 49 50 50 47 46 46 47 46 46 48 49 50 50 49 47 51 49 46 46 47 47 46 45 46 46 48 49 44 43 44 47 48 50 49 50 53
52 51 51 50 49 49 47 48 49 47 47 46 46 45 45 46 48 49 49 47 49 48 49 48 47 47 49 50 46 44 44 44 48 50 52 50 49 50 51 48 47 46 45
51 49 50 50 49 47 47 47 45 45 45 44 43 44 46 44 47 48 49 48 45 48 45 46 49 48 51 52 47 45 41 42 44 46 51 52 53 53 53 51 51 47 44
50 49 49 49 48 48 47 45 44 44 45 42 41 44 43 45 44 48 50 46 46 43 42 45 45 49 50 50 49 49 46 47 48 50 50 50 52 52 51 52 51 51 46
49 48 49 49 48 49 45 44 44 44 40 39 39 40 43 46 45 46 49 48 48 42 41 45 50 48 49 49 50 48 49 51 50 48 47 47 48 46 49 52 52 51 52
48 48 48 48 49 47 44 43 42 41 38 38 38 38 40 42 44 48 47 47 47 43 43 46 49 49 49 50 48 49 49 50 49 45 46 45 45 45 47 46 51 53 52
47 47 48 47 47 45 45 44 40 38 37 37 38 38 39 40 44 45 44 44 45 42 43 45 46 48 48 49 50 50 51 49 44 46 47 45 47 45 43 44 46 46 45
46 47 47 47 42 41 44 41 39 39 40 39 39 39 38 38 42 45 45 43 42 42 41 44 41 46 48 49 48 47 45 45 44 48 47 45 44 42 45 48 45 45 43
44 45 46 42 40 41 39 40 41 41 43 44 44 43 45 45 46 45 44 43 43 41 37 36 40 43 44 45 45 44 41 40 43 46 48 48 45 44 45 46 45 45 47
44 44 41 39 40 39 38 36 35 39 41 42 43 44 45 45 45 44 43 43 41 39 35 35 35 37 39 43 44 44 40 39 43 46 48 48 47 45 45 43 44 48 50
44 43 40 39 40 37 36 36 36 36 35 37 42 44 44 45 44 42 42 42 38 38 35 34 34 35 37 38 40 43 42 42 42 46 47 45 44 46 47 48 45 50 49
43 41 40 40 40 39 37 36 36 36 36 37 41 43 44 44 44 43 42 37 35 35 35 34 35 35 36 37 38 42 43 44 45 46 48 49 51 50 50 50 50 49 50
43 42 40 39 39 37 36 36 36 36 36 36 37 39 40 41 40 37 38 36 36 34 34 34 35 35 35 36 37 38 42 44 47 49 49 51 52 52 51 51 51 49 50
40 40 39 38 38 37 36 35 35 35 35 36 37 38 40 38 36 36 35 35 35 35 34 34 34 35 36 36 37 37 38 41 43 49 50 50 51 51 52 51 51 50 50
41 39 37 37 37 36 35 35 35 35 35 35 36 37 39 37 37 36 36 35 36 35 35 35 35 35 35 36 36 36 37 38 41 47 50 50 51 51 51 51 48 47 48
42 38 37 38 37 37 35 35 34 35 35 36 36 35 39 37 36 36 35 35 35 35 35 35 35 35 36 36 38 38 37 37 40 44 49 49 49 51 50 49 49 50 48
40 37 36 37 36 36 35 35 34 35 35 35 36 38 38 36 35 36 35 35 35 35 35 34 35 34 35 36 37 38 39 41 41 42 44 46 47 49 50 49 49 51 48
39 37 37 36 35 34 34 35 35 36 35 36 37 37 37 37 37 36 35 35 34 34 34 34 34 35 35 35 36 37 38 39 41 41 43 47 46 48 49 48 49 51 51
39 39 38 36 35 35 34 34 35 36 37 36 37 36 36 35 36 35 35 34 34 33 33 34 33 33 35 36 36 37 37 38 39 40 43 45 47 46 47 47 49 50 51
MSLP
1019.78 1019.87 1019.88 1019.83 1019.83 1019.83 1019.72 1019.54 1019.30 1019.02 1018.71 1018.31 1017.91 1017.50 1017.10 1016.70 1016.34 1015.92 1015.50 1015.10 1014.77 1014.45 1014.30 1014.07 1013.84 1013.77 1013.61 1013.44 1013.35 1013.17 1012.81 1012.52 1011.26 1010.74 1010.26 1009.81 1009.52 1009.39 1009.20 1008.92 1008.68 1008.18 1007.85
1020.06 1020.00 1019.86 1019.89 1019.79 1019.59 1019.28 1019.05 1018.81 1018.46 1018.11 1017.72 1017.30 1016.85 1016.38 1015.94 1015.56 1015.14 1014.73 1014.38 1014.07 1013.81 1013.65 1013.39 1013.01 1012.90 1012.59 1012.49 1012.38 1012.01 1011.73 1011.58 1011.25 1010.53 1010.38 1009.84 1009.16 1008.89 1008.65 1008.38 1007.99 1007.49 1007.26
1020.00 1019.92 1019.78 1019.60 1019.43 1019.22 1019.00 1018.74 1018.42 1017.98 1017.54 1017.12 1016.70 1016.17 1015.70 1015.28 1014.84 1014.42 1014.00 1013.69 1013.44 1013.20 1012.90 1012.42 1012.02 1011.81 1011.54 1011.36 1011.10 1010.78 1010.54 1010.29 1010.09 1009.79 1009.63 1009.78 1009.41 1009.03 1008.48 1008.05 1007.69 1007.47 1007.07
1020.00 1019.87 1019.62 1019.39 1019.26 1019.08 1018.84 1018.50 1018.06 1017.58 1017.01 1016.51 1016.04 1015.52 1015.06 1014.54 1014.11 1013.67 1013.28 1013.04 1012.64 1012.12 1011.68 1011.25 1010.80 1010.52 1010.33 1010.16 1009.88 1009.58 1009.30 1009.14 1009.08 1008.76 1008.77 1008.72 1008.66 1008.65 1008.10 1007.48 1006.89 1006.53 1006.19
1019.84 1019.63 1019.38 1019.31 1019.09 1018.80 1018.50 1018.10 1017.62 1017.12 1016.57 1016.04 1015.43 1014.89 1014.38 1013.91 1013.36 1012.87 1012.54 1012.07 1011.47 1010.78 1010.32 1009.90 1009.47 1009.10 1008.86 1008.55 1008.20 1007.91 1007.94 1007.87 1007.78 1007.55 1007.46 1007.60 1007.72 1007.68 1007.35 1006.75 1006.30 1006.04 1005.48
1019.59 1019.38 1019.31 1019.15 1018.86 1018.54 1018.12 1017.68 1017.17 1016.60 1016.07 1015.43 1014.96 1014.46 1013.82 1013.24 1012.73 1012.25 1011.60 1010.86 1010.14 1009.38 1008.79 1008.30 1007.66 1007.41 1007.07 1006.59 1005.97 1005.72 1005.76 1006.07 1006.20 1006.13 1006.23 1006.31 1006.71 1006.93 1006.65 1006.08 1005.62 1005.32 1005.17
1019.42 1019.24 1019.07 1018.80 1018.47 1018.15 1017.69 1017.12 1016.57 1016.00 1015.46 1015.20 1014.68 1014.05 1013.40 1012.67 1012.08 1011.27 1010.45 1009.65 1008.91 1008.21 1007.49 1006.79 1006.33 1005.83 1005.43 1004.90 1004.44 1004.11 1003.98 1003.96 1004.32 1004.40 1004.87 1005.24 1005.74 1005.87 1005.77 1005.82 1005.50 1005.02 1004.82
1019.27 1019.00 1018.81 1018.60 1018.18 1017.77 1017.23 1016.64 1015.97 1015.39 1015.02 1014.55 1013.99 1013.36 1012.70 1011.98 1011.24 1010.41 1009.52 1008.62 1007.92 1007.40 1006.31 1005.82 1005.23 1004.49 1003.85 1003.47 1003.18 1003.02 1003.15 1003.35 1003.30 1003.42 1003.61 1004.51 1005.12 1005.26 1005.19 1005.14 1005.13 1004.88 1004.32
1019.05 1018.80 1018.62 1018.45 1017.86 1017.36 1016.82 1016.21 1015.60 1015.13 1014.54 1013.87 1013.35 1012.73 1011.99 1011.10 1010.42 1009.46 1008.71 1007.90 1006.97 1006.13 1005.35 1004.62 1003.67 1002.51 1001.63 1001.24 1001.17 1001.52 1002.01 1002.37 1002.85 1002.84 1002.84 1003.34 1003.92 1004.20 1004.34 1004.66 1004.51 1004.27 1003.75
1018.92 1018.78 1018.49 1018.08 1017.53 1016.94 1016.42 1015.82 1015.61 1015.04 1014.11 1013.51 1012.90 1012.27 1011.22 1010.47 1009.74 1008.89 1007.96 1007.06 1006.36 1005.36 1004.62 1003.44 1002.46 1001.46 999.74 998.38 999.71 1000.39 1000.97 1001.72 1002.21 1002.37 1001.98 1002.19 1002.36 1002.67 1002.88 1003.22 1003.55 1003.26 1003.28
1018.86 1018.66 1018.16 1017.63 1017.10 1016.53 1016.04 1015.78 1015.15 1014.38 1013.57 1013.02 1012.32 1011.39 1010.67 1009.79 1008.98 1008.23 1007.25 1006.62 1005.88 1005.01 1004.10 1002.70 1002.12 1001.08 1000.06 999.53 999.54 1000.05 1000.51 1001.21 1001.18 1001.14 1001.11 1001.24 1001.32 1001.53 1001.89 1002.19 1002.47 1002.51 1002.48
1018.56 1018.27 1017.63 1017.13 1016.59 1015.97 1015.68 1015.22 1014.62 1013.84 1013.26 1012.45 1011.67 1010.77 1009.94 1009.00 1008.51 1007.91 1006.94 1006.21 1005.38 1004.86 1003.82 1002.39 1001.44 1001.08 1000.39 1000.06 999.94 1000.12 1000.31 1000.26 1000.35 1000.53 1000.60 1000.73 1000.84 1001.20 1001.32 1001.17 1001.27 1001.59 1001.75
1018.20 1017.67 1017.09 1016.60 1015.93 1015.70 1015.31 1014.71 1014.04 1013.55 1012.86 1011.98 1011.16 1010.20 1009.32 1008.71 1008.19 1007.30 1006.58 1005.88 1005.14 1004.46 1003.77 1002.24 1001.38 1000.84 1000.46 1000.08 1000.02 1000.06 1000.01 999.76 999.76 1000.02 1000.05 1000.30 1000.62 1000.88 1000.92 1001.14 1000.95 1000.82 1001.19
1017.81 1017.26 1016.69 1016.16 1015.66 1015.52 1014.92 1014.22 1013.89 1013.18 1012.35 1011.52 1010.58 1009.85 1009.14 1008.61 1007.64 1006.95 1006.29 1005.53 1004.79 1004.33 1003.49 1002.25 1001.67 1000.95 1000.44 1000.16 1000.07 999.98 999.74 999.72 999.71 999.47 999.56 1000.01 1000.12 1000.51 1000.59 1000.63 1000.12 1000.29 1000.89
1017.60 1017.01 1016.43 1015.99 1015.88 1015.42 1014.62 1014.18 1013.61 1012.96 1012.13 1011.03 1010.36 1009.68 1008.99 1008.04 1007.57 1006.74 1006.05 1005.43 1004.93 1004.32 1003.38 1002.13 1001.82 1001.00 1000.24 1000.12 1000.18 1000.26 1000.24 999.95 999.49 999.30 999.38 999.75 999.97 999.90 999.51 999.79 1000.07 1000.02 1000.34
1017.45 1016.86 1016.37 1016.29 1015.91 1015.20 1014.52 1013.61 1013.30 1012.62 1011.77 1010.99 1010.21 1009.53 1008.68 1008.12 1007.37 1006.77 1006.23 1005.74 1005.05 1004.48 1003.90 1003.07 1002.10 1001.45 1000.96 1000.60 1000.43 1000.30 1000.47 1000.07 999.53 999.38 999.26 999.42 999.69 999.56 999.33 999.88 1000.02 999.74 998.99
1017.34 1016.83 1016.61 1016.30 1015.65 1014.95 1014.39 1013.74 1012.83 1011.92 1011.50 1010.84 1010.10 1009.24 1008.56 1007.81 1007.24 1006.73 1006.22 1005.57 1005.18 1004.72 1004.28 1003.67 1003.04 1002.49 1001.91 1001.30 1000.86 1000.51 1000.64 1000.13 999.70 999.34 999.36 999.52 999.79 999.87 999.80 1000.14 1000.26 999.58 999.54
1017.10 1016.70 1016.52 1015.99 1015.35 1014.90 1014.30 1013.59 1012.85 1012.04 1011.17 1010.37 1009.75 1009.01 1008.30 1007.60 1007.01 1006.72 1006.18 1005.45 1005.01 1004.67 1004.46 1004.02 1003.54 1003.07 1002.58 1002.07 1001.51 1000.85 1000.50 1000.10 999.75 999.52 999.50 999.83 1000.04 1000.05 999.92 999.89 1000.25 1000.04 1000.20
1016.85 1016.57 1016.23 1015.81 1015.20 1014.72 1014.17 1013.45 1012.65 1011.92 1011.22 1010.40 1009.43 1008.56 1008.06 1007.45 1006.78 1006.48 1006.07 1005.80 1005.33 1004.83 1004.51 1004.17 1003.82 1003.36 1002.86 1002.39 1001.93 1001.35 1000.77 1000.24 999.94 999.62 999.61 999.77 999.71 999.81 999.95 1000.24 1000.52 1000.70 1000.72
1016.53 1016.38 1016.11 1015.69 1015.11 1014.56 1014.02 1013.28 1012.51 1011.80 1011.08 1010.40 1009.60 1008.73 1007.96 1007.29 1006.62 1006.40 1006.05 1005.72 1005.30 1004.94 1004.59 1004.18 1003.75 1003.41 1003.02 1002.57 1002.12 1001.71 1001.22 1000.67 1000.21 999.92 999.71 999.67 999.81 999.90 1000.06 1000.32 1000.62 1000.94 1001.16
1016.53 1016.29 1016.10 1015.72 1015.03 1014.52 1013.91 1013.25 1012.59 1011.79 1011.07 1010.31 1009.55 1008.92 1008.20 1007.60 1007.01 1006.51 1006.06 1005.61 1005.18 1004.75 1004.33 1004.00 1003.57 1003.20 1002.85 1002.56 1002.18 1001.87 1001.48 1001.09 1000.66 1000.12 1000.06 1000.04 1000.04 1000.08 1000.25 1000.57 1000.79 1001.21 1001.46
1016.39 1016.19 1015.97 1015.53 1015.01 1014.48 1013.85 1013.29 1012.62 1011.89 1011.17 1010.39 1009.56 1008.85 1008.24 1007.79 1007.16 1006.61 1006.04 1005.47 1004.94 1004.44 1003.96 1003.54 1003.14 1002.78 1002.53 1002.30 1002.05 1001.80 1001.62 1001.37 1000.97 1000.35 1000.09 1000.23 1000.31 1000.46 1000.58 1000.84 1001.29 1001.61 1001.90
1016.16 1016.04 1015.84 1015.36 1014.96 1014.44 1013.89 1013.27 1012.62 1011.99 1011.20 1010.48 1009.70 1009.13 1008.21 1007.71 1007.24 1006.54 1005.90 1005.20 1004.51 1003.83 1003.23 1002.78 1002.45 1002.08 1001.86 1001.73 1001.65 1001.54 1001.41 1001.32 1001.21 1000.84 1000.24 1000.36 1000.52 1000.60 1000.95 1001.11 1001.49 1001.70 1002.26
1016.19 1016.12 1015.75 1015.26 1014.89 1014.37 1013.81 1013.27 1012.65 1012.05 1011.42 1010.71 1009.85 1009.12 1008.45 1007.90 1007.23 1006.45 1005.67 1004.84 1004.02 1003.22 1002.56 1001.97 1001.53 1001.28 1001.09 1000.99 1000.97 1000.96 1001.00 1001.02 1001.11 1001.01 1000.80 1000.63 1000.78 1000.90 1001.26 1001.48 1001.73 1001.90 1002.44
1016.17 1015.97 1015.60 1015.26 1014.88 1014.40 1013.86 1013.34 1012.68 1012.04 1011.48 1010.68 1009.88 1009.25 1008.64 1007.95 1007.17 1006.32 1005.41 1004.47 1003.57 1002.70 1001.83 1001.14 1000.64 1000.30 1000.12 999.99 1000.06 1000.21 1000.35 1000.58 1000.86 1000.92 1000.91 1000.75 1000.96 1001.19 1001.43 1001.78 1001.89 1002.06 1002.30
1016.11 1015.79 1015.55 1015.25 1014.89 1014.45 1013.99 1013.39 1012.78 1012.10 1011.42 1010.84 1010.10 1009.46 1008.80 1008.03 1007.28 1006.34 1005.26 1004.19 1003.14 1002.17 1001.29 1000.43 999.83 999.32 998.82 998.59 998.72 999.22 999.59 1000.06 1000.59 1000.72 1000.84 1000.85 1000.86 1001.18 1001.45 1001.87 1002.10 1002.18 1002.46
Wind_Speed
2 4 6 7 8 9 10 11 12 13 14 15 16 16 16 16 15 15 16 16 16 16 16 15 16 16 10 10 10 10 11 11 15 13 13 13 15 15 14 13 14 15 13
5 6 7 8 9 10 11 13 14 15 15 16 16 17 17 16 16 16 16 15 16 16 14 16 17 12 17 15 12 16 13 14 12 16 12 11 16 15 15 14 13 12 13
6 7 8 10 10 12 13 14 15 16 16 16 17 17 17 16 16 16 16 16 16 17 17 16 17 16 15 12 14 13 13 13 13 12 11 11 11 12 14 14 14 15 14
6 8 9 11 12 12 14 15 16 16 17 17 17 17 16 16 16 16 16 17 17 16 17 18 19 17 17 17 16 17 15 14 14 13 11 11 10 11 12 12 12 12 13
7 9 10 11 12 13 14 15 16 16 16 17 17 17 16 14 12 15 15 16 17 17 17 18 18 21 29 27 15 17 17 14 13 12 12 10 10 11 12 12 10 11 13
8 10 11 12 13 13 15 15 16 16 16 16 17 17 16 12 21 25 23 16 17 16 14 17 16 24 25 33 36 36 25 18 18 14 13 13 12 11 12 11 11 12 12
10 11 12 12 14 14 15 16 16 16 15 16 17 16 17 17 25 27 28 15 16 17 17 17 15 14 24 20 26 30 28 30 30 20 17 14 14 15 12 12 12 13 11
11 12 12 13 15 15 16 17 16 15 15 15 15 15 15 14 25 27 28 18 15 17 19 19 18 21 20 22 19 16 16 16 15 11 15 12 12 10 10 11 11 14 12
11 12 12 14 15 16 16 17 15 15 16 15 15 16 16 16 25 26 24 15 15 17 18 17 20 21 28 33 18 14 13 10 14 23 22 23 26 25 19 8 11 10 11
12 12 13 14 15 16 16 15 13 13 14 11 14 16 19 15 23 26 23 10 13 14 16 16 22 21 24 17 13 8 9 10 10 11 11 15 18 17 25 16 12 12 8
11 12 14 15 15 15 13 13 12 13 14 13 14 14 14 16 14 23 24 12 11 11 13 9 8 18 17 13 7 8 9 11 16 12 11 9 10 11 9 12 13 12 10
11 13 14 15 13 11 14 14 14 13 13 12 12 12 10 12 17 17 24 23 22 11 14 10 8 14 12 9 3 8 14 12 8 7 7 7 9 6 9 10 12 12 11
12 14 14 15 13 13 14 13 12 11 10 10 10 10 10 8 9 18 21 23 20 14 11 17 16 12 11 8 3 6 6 6 7 7 8 6 4 6 7 6 11 13 12
13 14 13 14 14 14 11 9 10 10 9 9 8 8 8 8 9 10 10 10 15 12 16 11 12 12 6 2 3 4 6 6 5 8 5 4 4 3 6 6 7 8 7
12 13 13 11 12 13 12 9 9 10 12 10 8 8 8 7 11 19 17 10 10 13 15 7 4 7 4 3 4 5 7 7 5 4 4 5 4 6 5 6 3 5 5
12 11 11 10 10 11 10 11 14 17 21 20 19 15 10 15 22 21 22 20 19 19 6 6 7 6 5 5 6 4 4 6 5 5 5 4 3 1 4 6 3 5 7
11 12 10 9 10 9 9 9 10 10 16 17 17 18 20 18 20 20 19 18 16 13 4 6 5 6 6 6 7 4 4 6 4 3 4 4 4 3 3 6 2 3 7
11 15 9 9 9 8 8 9 8 8 9 8 12 16 16 20 18 18 19 14 9 8 6 5 6 5 5 6 6 5 3 2 3 3 4 6 5 6 4 6 3 3 6
9 9 10 8 8 10 8 9 8 8 8 9 9 11 14 20 18 18 17 7 8 8 7 7 5 5 5 5 5 6 5 5 3 2 6 7 5 5 6 5 6 3 6
9 14 12 8 8 8 8 8 8 7 7 8 8 10 10 13 11 9 9 8 7 7 7 7 6 5 6 5 4 4 5 4 2 1 4 5 5 4 5 5 5 6 5
6 9 13 9 9 8 8 8 9 8 8 7 8 10 21 11 9 10 9 8 8 7 7 6 7 6 5 6 5 4 4 4 5 3 3 3 4 4 5 5 5 6 6
8 7 7 8 8 9 8 7 8 8 8 8 8 9 17 8 9 10 10 10 8 7 6 6 6 6 5 6 6 5 4 4 5 6 5 5 5 5 5 6 5 5 5
8 7 8 7 7 10 8 7 8 8 8 10 9 8 9 10 10 11 11 10 9 9 8 7 7 7 6 6 6 7 6 5 4 5 5 6 6 6 5 4 6 8 7
6 7 8 7 7 7 6 8 8 11 11 7 8 10 10 10 10 12 12 10 10 9 8 8 7 9 8 8 7 7 8 7 5 4 4 5 5 6 7 5 6 9 7
6 7 7 7 6 6 8 6 9 9 9 8 9 9 10 11 11 12 12 11 11 10 10 8 7 8 10 12 12 13 12 12 9 6 4 6 8 11 8 6 6 8 10
6 7 7 7 5 6 6 6 9 10 11 9 10 9 10 11 11 12 12 13 12 11 12 8 8 11 12 11 13 16 18 18 15 13 6 6 8 8 8 10 11 7 10
Wind_Direction
299 316 313 312 307 303 299 298 295 298 296 295 294 292 290 289 287 284 281 281 278 276 274 273 272 270 267 255 249 252 256 263 271 274 273 271 269 267 267 263 263 260 251
327 314 312 312 306 302 302 304 303 300 298 295 294 292 291 288 287 285 284 284 283 282 277 271 270 263 259 254 249 251 248 246 256 268 271 278 275 271 270 269 268 263 259
309 310 308 308 308 309 308 308 306 302 300 298 294 292 292 290 289 284 282 285 281 275 272 266 263 262 261 256 254 254 254 255 250 251 254 258 264 270 271 266 260 258 258
303 307 309 312 315 310 309 305 304 302 300 298 296 295 292 290 287 283 285 282 276 271 268 264 267 265 258 252 250 251 249 246 248 252 245 242 245 252 260 263 257 250 252
309 309 310 312 309 308 307 306 304 303 301 299 297 295 292 289 289 292 287 277 272 268 261 258 258 255 256 251 244 243 240 240 244 244 246 240 239 239 249 251 252 260 258
304 309 314 311 311 309 308 307 305 304 302 302 305 299 296 294 294 293 292 283 279 276 276 271 269 269 271 266 263 259 240 225 233 239 239 238 234 236 249 256 262 256 258
314 314 311 311 310 310 307 304 304 303 306 304 301 298 295 294 296 294 295 293 290 288 286 286 281 269 271 267 260 266 265 260 233 227 231 225 228 240 236 236 245 253 250
310 311 313 313 310 309 308 307 306 307 306 305 295 298 298 293 295 300 298 299 303 289 288 292 283 275 263 257 254 249 245 254 255 259 224 220 233 240 254 261 241 255 262
311 312 314 313 309 311 310 310 310 312 306 304 304 302 297 297 299 304 308 299 304 299 290 292 280 272 265 262 251 233 231 225 246 251 248 214 216 222 225 225 235 241 248
317 315 313 312 311 310 310 312 312 299 300 304 298 295 298 299 298 303 307 313 305 307 302 292 305 315 313 283 235 236 196 217 234 247 246 238 241 241 236 229 237 241 229
315 312 312 312 312 312 310 307 303 301 302 304 294 299 295 291 300 305 314 314 315 317 312 310 313 329 347 349 227 218 212 211 223 231 236 234 238 235 227 224 223 232 232
314 310 313 315 318 308 320 310 307 307 306 297 296 295 295 298 313 307 313 325 326 329 313 304 312 326 339 346 319 216 241 234 243 250 231 233 232 239 248 238 225 217 231
312 312 319 320 316 320 316 307 310 308 299 297 296 296 313 315 298 314 325 327 327 329 318 320 319 310 305 301 343 344 284 255 241 230 235 233 237 218 237 245 255 233 227
312 319 321 318 325 323 315 315 306 306 304 302 302 308 311 314 324 327 322 324 328 327 323 309 318 301 310 29 297 317 320 296 267 234 219 217 188 210 238 249 205 184 199
317 317 319 322 330 317 315 313 310 302 307 319 322 322 330 314 331 337 334 336 334 332 330 304 325 314 321 328 332 352 333 313 290 194 192 157 191 236 188 160 173 160 216
314 318 323 322 318 313 309 313 312 311 318 325 323 323 327 335 341 343 344 341 340 351 345 338 336 337 337 345 331 329 339 321 300 185 193 166 148 226 86 129 166 234 145
313 317 324 314 305 312 315 310 311 313 313 319 325 326 331 331 345 344 337 346 344 351 342 342 342 342 337 329 332 333 351 314 311 275 157 145 128 103 121 124 216 143 114
316 319 317 307 309 311 311 308 305 310 317 322 325 327 331 331 341 344 346 336 339 349 343 337 337 333 337 331 321 328 302 295 338 168 170 124 154 163 144 114 84 77 105
315 324 322 311 312 318 316 311 308 311 313 312 322 324 334 337 343 343 344 340 333 334 332 327 327 323 322 324 324 315 328 329 349 92 147 153 153 144 127 133 139 141 116
326 322 327 316 317 319 316 315 315 310 308 317 316 319 324 331 339 337 336 333 327 324 324 314 312 308 309 308 313 317 306 312 258 140 144 148 149 139 137 143 152 148 154
323 328 322 312 317 327 312 320 322 315 315 311 311 327 332 335 335 332 330 328 321 314 310 306 303 298 294 293 295 299 310 301 298 208 172 159 156 158 154 150 144 144 152
321 326 315 311 322 328 326 324 324 323 319 322 317 323 340 339 331 332 327 322 314 301 293 290 289 283 276 270 269 271 265 274 276 258 191 181 185 171 164 144 133 124 146
323 330 319 318 327 334 331 327 326 327 324 331 332 335 331 343 333 329 325 317 310 302 294 284 282 277 263 250 246 249 248 240 249 284 221 193 191 185 176 158 158 160 154
333 322 322 326 326 328 322 332 333 333 334 339 324 335 341 337 330 328 323 316 310 304 297 283 272 269 262 245 238 229 232 231 232 255 260 171 204 186 175 173 165 164 148
336 325 323 332 329 329 329 335 337 337 339 329 340 333 341 335 331 329 322 320 318 314 306 295 277 265 254 244 234 224 218 215 217 216 217 189 184 197 179 183 188 182 166
334 333 332 336 333 331 333 335 339 344 345 338 335 339 338 336 334 329 326 326 326 323 320 311 295 279 268 243 223 210 209 204 204 220 199 202 184 187 188 189 200 187 176